[[{"header":{"parameterUnit":"m.s-1","parameterCategory":1,"la1":30.2991,"la2":30.254,"lo1":-89.0895,"lo2":-89.0444,"dy":0.0017,"dx":0.0017,"nx":28,"ny":28,"refTime":"2023-10-22T03:00:00:Z","depth":0,"parameterNumber":2,"parameterNumberName":"U-component_of_WINDS"},"data":[0,0,0,0,0,0,0,0,0,0,0,0,0,0,0,0,0,0,0,0,0,0,0,0,0,0,0,0,0,0,0,0,0,0,0,0,0,0,0,0,0,0,0,0,0,0,0,0,0,0,0,0,0,0,0,0,0,0,-0.2028,-0.2028,0,-0.2025,-0.2025,-0.2025,-0.2038,-0.2038,-0.2038,-0.2039,-0.2035,-0.2034,-0.2034,0,0,0,0,0,0,0,0,0,0,0,0,0,-0.2045,-0.2044,-0.2028,-0.2028,-0.2028,-0.2025,-0.2025,-0.2025,-0.2038,-0.2038,-0.2038,-0.2039,-0.2035,-0.2034,-0.2034,0,0,0,0,0,0,0,0,0,0,0,0,0,-0.2039,-0.2044,-0.2028,-0.2034,-0.2035,-0.2025,-0.2025,-0.2025,-0.2037,-0.2038,-0.2039,-0.2039,-0.2035,-0.2034,-0.2034,-0.2018,0,0,-0.2032,-0.2031,0,0,0,0,0,0,0,0,-0.2039,-0.2038,-0.2033,-0.2034,-0.2034,-0.2032,-0.203,-0.2023,-0.2037,-0.2036,-0.2039,-0.2039,-0.2033,-0.2033,-0.2031,-0.2018,-0.2018,-0.2031,-0.2031,-0.2031,-0.2031,0,0,0,0,0,0,0,-0.204,-0.2039,-0.2027,-0.2033,-0.2034,-0.2037,-0.2037,-0.2028,-0.2032,-0.2036,-0.2037,-0.2037,-0.2034,-0.2032,-0.2031,-0.2018,-0.2031,-0.2031,-0.203,-0.203,-0.1993,-0.1993,0,0,0,0,0,0,-0.2039,-0.2039,-0.2027,-0.2027,-0.2038,-0.2036,-0.2036,-0.2032,-0.2032,-0.2032,-0.2036,-0.2037,-0.2033,-0.2032,-0.2031,-0.2013,-0.2031,-0.203,-0.203,-0.1994,-0.1993,-0.1992,0,0,0,0,0,0,-0.204,-0.2038,-0.2027,-0.2033,-0.2032,-0.2035,-0.2031,-0.2032,-0.203,-0.2032,-0.2032,-0.2034,-0.2033,-0.2032,-0.2022,-0.2013,-0.203,-0.2029,-0.1994,-0.1994,-0.1993,-0.1978,0,0,0,0,0,0,-0.204,-0.2038,-0.2033,-0.2033,-0.2032,-0.2018,-0.2031,-0.2032,-0.2029,-0.203,-0.2029,-0.203,-0.2033,-0.2023,-0.2021,-0.2013,-0.2029,-0.1995,-0.1994,-0.1993,-0.1979,-0.1977,-0.1975,0,0,0,0,0,-0.2041,-0.2028,-0.2032,-0.2031,-0.2025,-0.2018,-0.2017,-0.2021,-0.2028,-0.2022,-0.2024,-0.203,-0.2015,-0.2021,-0.202,-0.2011,-0.1996,-0.1994,-0.1993,-0.198,-0.1977,-0.1975,0,0,0,0,0,0,-0.2026,-0.2028,-0.2033,-0.202,-0.2019,-0.202,-0.2013,-0.2018,-0.2014,-0.2016,-0.2021,-0.2021,-0.201,-0.2009,-0.2017,-0.1997,-0.2006,-0.2005,-0.1997,-0.1994,-0.1992,-0.1992,-0.2028,0,0,0,0,0,-0.2022,-0.2016,-0.2018,-0.2007,-0.2006,-0.2009,-0.2006,-0.201,-0.2009,-0.2008,-0.2009,-0.2007,-0.2002,-0.1998,-0.1993,-0.1979,-0.1979,-0.1973,-0.197,-0.1969,-0.1967,-0.196,-0.1957,-0.1988,-0.1988,-0.1988,0,0,-0.2012,-0.2012,-0.2008,-0.2004,-0.2003,-0.1997,-0.2009,-0.2002,-0.1997,-0.2007,-0.1997,-0.1998,-0.1996,-0.1984,-0.1979,-0.1983,-0.1958,-0.1967,-0.1965,-0.1965,-0.1958,-0.1955,-0.1953,-0.1987,-0.1987,-0.1988,0,0,-0.1991,-0.1991,-0.1982,-0.1981,-0.198,-0.1982,-0.198,-0.1981,-0.1981,-0.1972,-0.1979,-0.1974,-0.1965,-0.1964,-0.1962,-0.1942,-0.1947,-0.194,-0.1928,-0.1921,-0.1918,-0.1916,-0.1909,-0.1906,-0.1938,-0.1938,-0.1938,0,-0.1979,-0.197,-0.1976,-0.1969,-0.1966,-0.1976,-0.1966,-0.1965,-0.1963,-0.1961,-0.1967,-0.1956,-0.1955,-0.1943,-0.1938,-0.1937,-0.1934,-0.194,-0.1918,-0.1916,-0.1914,-0.1907,-0.1904,-0.1937,-0.1937,-0.1938,-0.1938,0,-0.1955,-0.1949,-0.1942,-0.194,-0.1937,-0.1928,-0.1933,-0.1929,-0.1934,-0.1936,-0.1926,-0.1926,-0.1922,-0.1919,-0.1923,-0.1908,-0.1911,-0.1917,-0.1927,-0.191,-0.1904,-0.1901,-0.1936,-0.1936,-0.1937,-0.1937,0,0,-0.1924,-0.1926,-0.1923,-0.1923,-0.1923,-0.1918,-0.191,-0.1907,-0.1903,-0.1902,-0.1895,-0.1888,-0.1894,-0.1892,-0.1896,-0.189,-0.1874,-0.1897,-0.1897,-0.1892,-0.1857,-0.1852,-0.1849,-0.1877,-0.1877,-0.1877,-0.1857,0,-0.1904,-0.1891,-0.1896,-0.1883,-0.1877,-0.1887,-0.188,-0.1879,-0.1881,-0.1877,-0.1879,-0.1873,-0.1882,-0.1881,-0.1875,-0.1877,-0.1866,-0.1878,-0.1871,-0.1871,-0.1871,-0.1845,-0.184,-0.1821,-0.1855,-0.1854,-0.1854,0,-0.1878,-0.1876,-0.1862,-0.1864,-0.1861,-0.1855,-0.1853,-0.1848,-0.1848,-0.185,-0.1848,-0.1853,-0.1846,-0.1856,-0.1845,-0.1853,-0.1851,-0.1851,-0.1851,-0.185,-0.1861,-0.1844,-0.1816,-0.1813,-0.185,-0.185,-0.1851,0,-0.1857,-0.185,-0.1841,-0.1841,-0.1842,-0.1838,-0.1838,-0.1838,-0.1836,-0.1833,-0.1832,-0.1828,-0.1827,-0.1824,-0.1828,-0.1835,-0.1817,-0.1828,-0.1818,-0.1818,-0.1814,-0.1814,-0.1785,-0.1813,-0.1813,-0.1813,-0.1813,0,-0.1833,-0.1824,-0.1832,-0.1826,-0.1817,-0.1823,-0.1813,-0.1815,-0.1815,-0.181,-0.1817,-0.1812,-0.1819,-0.1814,-0.1817,-0.1808,-0.1808,-0.1809,-0.181,-0.1808,-0.1808,-0.1806,-0.1807,-0.1812,-0.1812,-0.1812,-0.1813,0,-0.1808,-0.1812,-0.1803,-0.1806,-0.1806,-0.1799,-0.1801,-0.1796,-0.1799,-0.1792,-0.1791,-0.1795,-0.179,-0.1795,-0.179,-0.1792,-0.178,-0.1783,-0.178,-0.1781,-0.1772,-0.1772,-0.174,-0.1736,-0.1767,-0.1767,-0.1766,0,-0.1792,-0.1786,-0.1788,-0.1785,-0.1785,-0.1781,-0.1779,-0.1785,-0.1782,-0.1782,-0.1777,-0.1773,-0.177,-0.1761,-0.1764,-0.176,-0.1763,-0.1752,-0.1762,-0.1761,-0.1763,-0.1763,-0.1762,-0.175,-0.1749,-0.1749,-0.1749,0,-0.1764,-0.1767,-0.1764,-0.1761,-0.1759,-0.1757,-0.1756,-0.1753,-0.176,-0.1757,-0.1752,-0.175,-0.1745,-0.1741,-0.1738,-0.1739,-0.1745,-0.1746,-0.1743,-0.1741,-0.174,-0.174,-0.1774,-0.1746,-0.1746,-0.1747,-0.1747,-0.1747,-0.1743,-0.1738,-0.1739,-0.1735,-0.1735,-0.1734,-0.173,-0.1732,-0.1729,-0.1726,-0.173,-0.1724,-0.1724,-0.1721,-0.1721,-0.1717,-0.1721,-0.1718,-0.1717,-0.1716,-0.1714,-0.1741,-0.1716,-0.1716,-0.1716,-0.1716,-0.1716,0,-0.1716,-0.1717,-0.1713,-0.1712,-0.1709,-0.1716,-0.1715,-0.1712,-0.1707,-0.1707,-0.1704,-0.1699,-0.1695,-0.1698,-0.1694,-0.169,-0.1693,-0.1689,-0.1689,-0.1689,-0.1711,-0.1713,-0.1687,-0.1687,-0.1687,-0.1687,-0.1687,-0.1687,-0.1701,-0.1692,-0.1696,-0.1687,-0.1689,-0.1684,-0.1683,-0.1682,-0.1682,-0.1676,-0.1673,-0.1675,-0.1676,-0.1673,-0.1669,-0.167,-0.1669,-0.1664,-0.1666,-0.1685,-0.1688,-0.1691,-0.1693,-0.1664,-0.1663,-0.1645,-0.1645,-0.1645]},{"header":{"parameterUnit":"m.s-1","parameterCategory":1,"la1":30.2991,"la2":30.254,"lo1":-89.0895,"lo2":-89.0444,"dy":0.0017,"dx":0.0017,"nx":28,"ny":28,"refTime":"2023-10-22T03:00:00:Z","depth":0,"parameterNumber":3,"parameterNumberName":"V-component_of_WINDS"},"data":[0,0,0,0,0,0,0,0,0,0,0,0,0,0,0,0,0,0,0,0,0,0,0,0,0,0,0,0,0,0,0,0,0,0,0,0,0,0,0,0,0,0,0,0,0,0,0,0,0,0,0,0,0,0,0,0,0,0,0.4223,0.4222,0,0.4158,0.4157,0.4157,0.4102,0.4101,0.41,0.41,0.403,0.4029,0.4027,0,0,0,0,0,0,0,0,0,0,0,0,0,0.4296,0.4295,0.4223,0.4222,0.4221,0.4158,0.4157,0.4156,0.4102,0.4101,0.41,0.41,0.403,0.4029,0.4027,0,0,0,0,0,0,0,0,0,0,0,0,0,0.4251,0.4295,0.4223,0.4187,0.4183,0.4158,0.4157,0.4156,0.4102,0.4101,0.41,0.4099,0.4031,0.4029,0.4027,0.4033,0,0,0.4021,0.402,0,0,0,0,0,0,0,0,0.4254,0.4248,0.4193,0.4189,0.4185,0.4137,0.4157,0.4115,0.4102,0.4132,0.41,0.4099,0.4066,0.4061,0.4051,0.403,0.4027,0.4021,0.402,0.4019,0.4018,0,0,0,0,0,0,0,0.4257,0.4251,0.4197,0.4192,0.4187,0.4172,0.4165,0.4149,0.4105,0.413,0.4126,0.4119,0.4064,0.4053,0.4049,0.4026,0.4021,0.4019,0.4018,0.4017,0.4005,0.4006,0,0,0,0,0,0,0.4266,0.4254,0.4199,0.4195,0.4218,0.4172,0.4163,0.4153,0.4105,0.4097,0.412,0.4116,0.4057,0.4051,0.4046,0.405,0.4019,0.4017,0.4016,0.4005,0.4006,0.4006,0,0,0,0,0,0,0.4268,0.4262,0.4202,0.4223,0.4215,0.4171,0.416,0.4152,0.4142,0.4097,0.4089,0.4117,0.4056,0.4049,0.4037,0.4047,0.4016,0.4014,0.4004,0.4005,0.4006,0.4057,0,0,0,0,0,0,0.427,0.4263,0.4266,0.4224,0.4214,0.4195,0.4161,0.4152,0.4139,0.4134,0.4093,0.4085,0.4055,0.404,0.4035,0.4043,0.4013,0.4002,0.4004,0.4006,0.4055,0.406,0.4065,0,0,0,0,0,0.4273,0.4282,0.4266,0.426,0.4216,0.4196,0.419,0.4155,0.414,0.4142,0.4113,0.4086,0.4046,0.4039,0.4033,0.4041,0.4002,0.4004,0.4005,0.4052,0.4059,0.4065,0,0,0,0,0,0,0.4324,0.4276,0.4258,0.4253,0.4229,0.4186,0.4188,0.4164,0.4143,0.4139,0.4096,0.4087,0.408,0.4059,0.4052,0.4044,0.402,0.4021,0.4058,0.4064,0.4069,0.4075,0.4011,0,0,0,0,0,0.4336,0.4324,0.4281,0.4282,0.4271,0.4231,0.4221,0.4197,0.417,0.4159,0.4129,0.4103,0.4084,0.4073,0.4053,0.4051,0.4041,0.4053,0.4059,0.4063,0.4064,0.4061,0.4066,0.4013,0.4013,0.4013,0,0,0.4358,0.433,0.4325,0.4291,0.427,0.4258,0.4223,0.4212,0.4202,0.4156,0.4144,0.4121,0.4089,0.4082,0.4077,0.4064,0.4077,0.4066,0.407,0.4068,0.4064,0.4069,0.4074,0.4014,0.4014,0.4014,0,0,0.4392,0.437,0.4368,0.4347,0.4315,0.4289,0.4289,0.425,0.4233,0.422,0.4186,0.4173,0.4142,0.412,0.4105,0.4131,0.4106,0.4126,0.4154,0.4151,0.4155,0.4159,0.4168,0.4172,0.4127,0.4127,0.4128,0,0.4424,0.4405,0.4369,0.436,0.4346,0.4306,0.4303,0.4284,0.4247,0.4238,0.4224,0.4184,0.416,0.4147,0.4154,0.4143,0.414,0.4131,0.4158,0.4161,0.4164,0.4172,0.4176,0.413,0.413,0.413,0.4129,0,0.4445,0.4433,0.4435,0.4401,0.4387,0.4381,0.4344,0.4334,0.4311,0.4286,0.4272,0.4241,0.4215,0.421,0.4187,0.4194,0.4187,0.4166,0.4141,0.4172,0.4179,0.4182,0.4134,0.4133,0.4132,0.4132,0,0,0.451,0.4458,0.4459,0.4443,0.4405,0.4394,0.4386,0.4361,0.4353,0.4329,0.4321,0.4295,0.4276,0.4259,0.4233,0.4231,0.4253,0.421,0.4208,0.4219,0.4259,0.4275,0.428,0.4236,0.4237,0.4237,0.4262,0,0.4539,0.4523,0.4491,0.4485,0.4472,0.4434,0.4426,0.4401,0.4378,0.4363,0.4336,0.4319,0.4295,0.4284,0.428,0.4252,0.4261,0.4249,0.4227,0.4227,0.4237,0.4283,0.43,0.4325,0.4264,0.4265,0.4265,0,0.457,0.4549,0.4543,0.4505,0.4499,0.4493,0.4468,0.4454,0.4425,0.4408,0.4389,0.4361,0.4349,0.4327,0.4309,0.4302,0.4291,0.4275,0.4275,0.4272,0.4248,0.4281,0.4332,0.4336,0.4269,0.4269,0.4268,0,0.4618,0.4589,0.4581,0.4569,0.4525,0.4522,0.4503,0.4473,0.446,0.4437,0.4428,0.4404,0.4391,0.4372,0.4338,0.4325,0.4324,0.4299,0.4309,0.431,0.4311,0.4311,0.4361,0.4303,0.4303,0.4303,0.4303,0,0.4654,0.4651,0.4602,0.4597,0.4593,0.4555,0.4551,0.4529,0.4503,0.4492,0.4456,0.4447,0.4402,0.4386,0.4359,0.4349,0.4343,0.4328,0.4321,0.4331,0.4333,0.4324,0.4321,0.4304,0.4304,0.4304,0.4304,0,0.4707,0.4674,0.4663,0.4623,0.4613,0.4611,0.4576,0.457,0.4544,0.4531,0.4525,0.4485,0.4465,0.4429,0.4398,0.438,0.4376,0.4363,0.4386,0.4382,0.4394,0.4393,0.4439,0.4443,0.4383,0.4384,0.4385,0,0.4732,0.4729,0.4689,0.468,0.4663,0.4649,0.4636,0.4598,0.4586,0.4552,0.455,0.4527,0.4508,0.4478,0.4445,0.4422,0.4408,0.4426,0.4404,0.4415,0.4409,0.4409,0.4409,0.4431,0.4432,0.4432,0.4433,0,0.478,0.4764,0.4747,0.4725,0.4711,0.4691,0.4669,0.4663,0.462,0.4608,0.4588,0.4573,0.4543,0.4521,0.4493,0.4472,0.4445,0.444,0.4441,0.4452,0.4466,0.4459,0.44,0.4439,0.4439,0.4438,0.4438,0.4437,0.482,0.4816,0.4787,0.4769,0.4749,0.473,0.4722,0.4695,0.4679,0.4652,0.463,0.4612,0.4582,0.4542,0.4523,0.4507,0.4494,0.4496,0.4496,0.4498,0.4502,0.4468,0.4502,0.4502,0.4501,0.4501,0.4501,0,0.4866,0.4845,0.483,0.4801,0.4787,0.4764,0.4739,0.4728,0.4713,0.4688,0.467,0.4647,0.4626,0.4591,0.4567,0.4561,0.4548,0.4556,0.4556,0.4552,0.4515,0.4516,0.4567,0.4567,0.4567,0.4567,0.4567,0.4567,0.4888,0.488,0.4861,0.4842,0.4821,0.4804,0.4791,0.4773,0.4753,0.4729,0.4712,0.469,0.4661,0.4634,0.4613,0.4603,0.4596,0.4608,0.4595,0.4561,0.4554,0.4549,0.455,0.4607,0.4607,0.4633,0.4633,0.4633]}]]